Location: Peterborough
(44.3048°N, 78.3199°W)
Time: 03:23:30
(UTC-04:00)

ISS - Pass Details

Date: 14 May 2025
Orbit: 415 x 418 km, 51.6° (Epoch: 20 June)

Event Time Altitude Azimuth Distance (km) Brightness Sun altitude
Rises 23:07:14 0° 291° (WNW) 2,360 0.9 -20.9°
Reaches altitude 10° 23:09:38 10° 307° (NW) 1,495 0.0 -21.1°
Maximum altitude 23:12:21 22° 2° (N) 955 -1.3 -21.3°
Enters shadow 23:14:58 11° 55° (NE) 1,459 -1.0 -21.6°
